www.pogodaiklimat.ru

Погода и климат >> Архив погоды >> Кот-д'Ивуар >> Сан-Педро


ПОГОДА в Сан-Педро

  • Прогноз погоды в Сан-Педро
  • Монитор погоды в Сан-Педро

АРХИВ ПОГОДЫ в Сан-Педро

Время (UTC), дата Ветер
(напр.,м/с)
 
Видим.   Явления Облачность Т
(С)
Тd
(С)
f
(%)
Тe
(С)
Тes
(С)
Комфортность P
(гПа)
Po
(гПа)
Тmin
(С)
Tmax
(С)
R
(мм)
R24
(мм)
S
(см)
09 14.07 С 1 6000 м 1/1 400 м
[Cu med, cong]
+24.8 +22.9 89 +33 +41 очень
душно
1016.1 1012.7
12 14.07 Ю 4 10 км 1/1 400 м
[Cu med, cong]
+27.0 +22.0 74 +35 +47 очень
душно
1014.9 1011.6
15 14.07 Ю 6 10 км 1/1 400 м
[Cu med, cong]
+27.1 +21.6 72 +35 +39 очень
душно
1012.4 1009.1
18 14.07 Ю 4 10 км ясно +25.6 +22.3 82 +33 +34 очень
душно
1012.0 1009.7 +28.0
21 14.07 Ю 2 10 км ясно +24.1 +22.9 93 +32 +32 очень
душно
1013.6 1010.2
00 15.07 ЮЗ 2 10 км 9/9 400 м
[Cu med, cong]
+23.9 +22.7 93 +31 +31 очень
душно
1013.7 1010.3
06 15.07 штиль 0 10 км 6/6 330 м
[Sc]
+22.6 +21.9 96 +30 +30 очень
душно
1013.4 1010.0 +22.5
09 15.07 З 2 10 км 4/0
[Ac trans]
+25.5 +22.2 82 +33 +39 очень
душно
1014.2 1010.8
12 15.07 ЮЗ 6 10 км 3/3 400 м
[Cu med, cong]
+27.6 +22.1 72 +36 +41 очень
душно
1012.9 1009.6
15 15.07 Ю 4 10 км 6/1 400 м
[Cu med, cong Ci sp]
+26.9 +22.7 78 +36 +42 очень
душно
1011.0 1007.7
18 15.07 Ю 3 10 км 1/1 <50 м
[Sc]
+25.6 +23.1 86 +34 +34 очень
душно
1011.5 1008.2 +28.2
21 15.07 ЮЗ 4 10 км 3/3 400 м
[Sc]
+24.9 +22.8 88 +33 +33 очень
душно
1013.0 1009.6
00 16.07 ЮЗ 4 10 км 4/4 400 м
[Sc]
+25.1 +22.6 86 +33 +33 очень
душно
1013.3 1009.9
03 16.07 З 3 10 км 9/9 400 м
[Sc Ac trans]
+23.9 +22.5 92 +31 +31 очень
душно
1011.7 1008.3
06 16.07 З 2 6000 м 9/5 400 м
[Sc Ac trans]
+23.3 +22.5 95 +32 +32 очень
душно
1012.1 1008.7 +23.2
09 16.07 З 3 10 км 9/1 400 м
[Cu med, cong Ac trans]
+26.3 +23.4 84 +36 +38 очень
душно
1013.4 1010.1
12 16.07 ЮЗ 6 10 км 9/6 400 м
[Cu med, cong Ac trans]
+27.5 +23.3 78 +37 +39 очень
душно
1013.5 1010.2
15 16.07 Ю 4 10 км 6/4 400 м
[Cu med, cong Ac trans]
+26.6 +23.3 82 +36 +40 очень
душно
1012.0 1008.7
18 16.07 10 км н/о +25.3 +23.0 87 +34 +34 очень
душно
1011.2 1008.8 +28.3
21 16.07 ЮЗ 4 10 км 1/0
[Ac trans]
+24.4 +23.0 92 +32 +32 очень
душно
1014.1 1010.7
00 17.07 З 2 10 км 1/0
[Ac trans]
+23.7 +22.9 95 +31 +31 очень
душно
1014.8 1011.4
03 17.07 СЗ 2 10 км 3/0
[Ac trans]
+23.1 +22.6 97 +32 +32 очень
душно
1013.4 1010.0
06 17.07 С 2 8000 м в посл. час дождь 6/6 400 м
[Sc Ac trans]
+23.5 +23.0 97 +31 +31 очень
душно
1014.3 1010.9 +23.0 2
09 17.07 СЗ 1 10 км 9/9 400 м
[Cu med, cong]
+25.1 +23.9 93 +34 +35 очень
душно
1016.0 1012.6
12 17.07 Ю 4 10 км 9/3 400 м
[Cu med, cong Ac trans]
+25.5 +22.9 86 +34 +38 очень
душно
1015.8 1012.4
15 17.07 Ю 4 10 км 9/4 400 м
[Cu med, cong Ac trans]
+26.8 +23.9 84 +37 +39 очень
душно
1013.5 1010.2
18 17.07 ЮЗ 4 10 км 9/9 400 м
[Cu med, cong]
+25.1 +23.2 89 +34 +34 очень
душно
1013.0 1009.6 +27.4
21 17.07 ЮЗ 3 10 км 9/9 400 м
[Sc]
+24.4 +22.7 90 +32 +32 очень
душно
1014.6 1011.2
00 18.07 З 1 10 км 9/9 400 м
[Sc]
+23.6 +22.8 95 +31 +31 очень
душно
1015.1 1011.7
03 18.07 СЗ 2 10 км 9/9 150 м
[Sc]
+23.2 +22.5 96 +32 +32 очень
душно
1013.4 1010.0
06 18.07 СЗ 2 10 км 8/1 400 м
[Sc Ac trans]
+23.0 +22.3 96 +31 +31 очень
душно
1013.9 1010.5 +22.9
09 18.07 СЗ 3 8000 м 9/1 400 м
[Cu med, cong Ac As]
+25.5 +23.0 86 +34 +36 очень
душно
1015.4 1012.0
12 18.07 Ю 5 10 км 9/5 400 м
[Cu med, cong Ac trans]
+26.7 +23.6 83 +36 +39 очень
душно
1014.5 1011.2
15 18.07 Ю 8 10 км 5/3 400 м
[Cu med, cong Ac trans]
+27.2 +23.9 82 +37 +39 очень
душно
1012.9 1009.6
18 18.07 ЮЗ 6 10 км 4/3 400 м
[Cu med, cong Ac trans]
+25.1 +23.3 90 +34 +34 очень
душно
1012.3 1008.9 +28.8
21 18.07 ЮЗ 5 10 км 6/5 150 м
[Cu med, cong Ac trans]
+24.1 +22.9 93 +32 +32 очень
душно
1014.2 1010.8
00 19.07 ЮЗ 3 10 км 9/3 400 м
[Sc Ac trans]
+24.3 +23.1 93 +32 +32 очень
душно
1014.5 1011.1
03 19.07 З 2 10 км 9/9 400 м
[Sc]
+24.0 +23.3 96 +32 +32 очень
душно
1013.4 1010.0
06 19.07 З 1 10 км 9/6 400 м
[Sc Ac trans]
+23.8 +23.1 96 +32 +32 очень
душно
1014.3 1010.9 +23.6
09 19.07 ЮЗ 5 10 км 9/6 400 м
[Cu med, cong Ac trans]
+25.8 +23.5 87 +35 +36 очень
душно
1015.3 1011.9
12 19.07 З 6 10 км 9/5 400 м
[Cu med, cong Ac trans]
+28.8 +23.0 71 +39 +41 очень
душно
1014.8 1011.5
15 19.07 ЮЗ 7 10 км 8/6 400 м
[Cu med, cong Ac trans]
+27.7 +24.1 81 +39 +39 очень
душно
1012.6 1009.3
18 19.07 ЮЗ 3 10 км 9/9 400 м
[Cu med, cong]
+25.1 +23.5 91 +34 +34 очень
душно
1012.2 1008.8 +30.2
21 19.07 ЮЗ 4 10 км 9/9 400 м
[Sc]
+24.9 +23.3 91 +33 +33 очень
душно
1014.4 1011.0
00 20.07 ЮЗ 4 10 км 9/9 400 м
[Sc]
+24.5 +23.1 92 +33 +33 очень
душно
1015.1 1011.8
03 20.07 З 3 10 км 9/9 400 м
[Sc]
+24.0 +23.1 95 +32 +32 очень
душно
1013.7 1010.3
06 20.07 ЮЗ 4 8000 м 9/9 150 м
[Sc]
+24.1 +23.1 94 +32 +32 очень
душно
1013.7 1010.3 +23.9
09 20.07 ЮЗ 4 8000 м 9/9 400 м
[Sc]
+25.4 +22.9 86 +34 +34 очень
душно
1015.9 1012.5
12 20.07 ЮЗ 7 10 км 9/4 400 м
[Cu med, cong Ac trans]
+27.6 +23.0 76 +37 +39 очень
душно
1015.3 1012.0
15 20.07 ЮЗ 5 8000 м слаб. дождь 9/9 150 м
[Cu med, cong]
+26.2 +24.1 88 +36 +37 очень
душно
1013.5 1010.2
18 20.07 ЮЗ 6 8000 м {дождь} 9/9 400 м
[Cu med, cong]
+25.4 +22.5 84 +33 +33 очень
душно
1012.5 1009.1 +28.1 0.2
21 20.07 ЮЗ 4 8000 м 8/8 400 м
[Sc]
+24.8 +22.6 88 +33 +33 очень
душно
1014.0 1011.1
00 21.07 ЮЗ 49 10 км 6/5 400 м
[Sc Ac trans]
+24.3 +22.8 91 -14 -14 1015.7 1012.3
03 21.07 СЗ 2 10 км 8/8 400 м
[Sc]
+24.0 +22.9 94 +32 +32 очень
душно
1013.6 1010.2

 

Местоположение метеостанции Сан-Педро (Кот-д'Ивуар): широта 4.75 долгота -6.65 высота над уровнем моря 30 м.

В архиве по умолчанию представлена погода в Сан-Педро за последнюю неделю. Архивные данные за месяц целиком и за предыдущие месяцы, начиная с января 2011 года, Вы можете получить, выбрав интересующий диапазон дат из раскрывающегося списка и нажав кнопку "Ввод!".


*Определитесь, кто Вы:
робот инопланетянин человек

Внимание! Время в таблицах - всемирное. Для получения местного времени необходимо прибавить поправку, которая равна 0 ч.

Смотрите также архив погоды в соседних городах и на ближайших метеорологических станциях:

Погода в Сассандре (Кот-д'Ивуар) (67 км)
Погода в Табу (Кот-д'Ивуар) (88 км)
Погода в Ганьоа (Кот-д'Ивуар) (172 км)
Погода в Далоа (Кот-д'Ивуар) (237 км)
Погода в Ямусукро (Кот-д'Ивуар) (279 км)
Погода в Димбокро (Кот-д'Ивуар) (302 км)
Погода в Абиджане (Кот-д'Ивуар) (306 км)
Погода в Мане (Кот-д'Ивуар) (308 км)
Погода в Буаке (Кот-д'Ивуар) (375 км)
Погода в Адиаке (Кот-д'Ивуар) (376 км)

Пояснения к столбцам:

Ветер - указаны скорость ветра в м/с - средняя за 10 мин, порывы в срок и между сроками (в фигурных скобках) и направление, откуда дует ветер: С - северный, СВ - северо-восточный, В - восточный, ЮВ - юго-восточный, Ю - южный, ЮЗ - юго-западный, З - западный, СЗ - северо-западный.
Видимость - горизонтальная дальность видимости в метрах или километрах. При видимости от 1 до 10 км при отсутствии осадков обычно наблюдается дымка, при ухудшении видимости до 1 км и менее - туман. В сухую погоду видимость может ухудшаться дымом, пылью или мглою.
Явления - указаны атмосферные явления, наблюдавшиеся в срок или в последний час перед сроком; фигурными скобками обозначены явления, наблюдавшиеся между сроками (за 1-3 часа до срока); квадратными скобками обозначены град или гололедные отложения с указанием их диаметра в мм.
Облачность - указаны через наклонную черту общая и нижняя облачность в баллах и высота нижней границы облаков в метрах; квадратными скобками обозначены формы облаков: Ci - перистые, Cs - перисто-слоистые, Cc - перисто-кучевые, Ac - высококучевые, As - высокослоистые, Sc - слоисто-кучевые, Ns - слоисто-дождевые, Cu - кучевые, Cb - кучево-дождевые. Подробнее классификацию облаков см. в Атласе облаков (PDF).
T - Температура воздуха - температура, измеренная на высоте 2 м над землей.
Td - Температура точки росы - температура, при понижении до которой содержащийся в воздухе водяной пар достигнет насыщения.
f - Относительная влажность воздуха - влажноcть воздуха, измеренная на высоте 2 м над землей.
Te - Эффективная температура - температура, которую ощущает одетый по сезону человек в тени. Характеристика душности погоды. При расчете учитывается влияние влажности воздуха и скорости ветра на теплоощущения человека.
Tes - Эффективная температура на солнце - температура, которую ощущает человек, с поправкой на солнечный нагрев. Характеристика знойности погоды. Зависит от высоты солнца над горизонтом, облачности и скорости ветра. Ночью, в пасмурную погоду, а также при ветре 12 м/с и более поправка равна нулю.
P - Атмосферное давление - приведенное к уровню моря атмосферное давление.
Po - Атмосферное давление - измеренное на уровне метеостанции атмосферное давление.
Tmin - Минимальная температура - минимум температуры воздуха на высоте 2 м над землей.
Tmax - Максимальная температура - максимум температуры воздуха на высоте 2 м над землей.
R - Количество осадков - Количество выпавших осадков за период времени, мм. При наведении курсора мыши на число - период времени, за который выпало указанное количество осадков.
R24 - Количество осадков - Количество выпавших осадков за 24 часа, мм.
S - Снежный покров - Высота снежного покрова, см. При наведении курсора мыши на число - состояние снежного покрова и степень покрытия местности в баллах.